Weather in Palos Verdes Estates

United States     33°48′18″N   118°23′34″W
temp.,
°C
wind,
m/s
gust,
m/s
humid.,
%
clouds,
%
prec.,
mm/h
press.,
hPa
HPBL,
m
18 may, tue
tue1823:00+15ssw338394 0.1 1017544
02:00+15ese3482100 0.1 1015562
05:00+16ese2279100 0.1 1015493
08:00+16ese117393 0.1 1016605
11:00+16sw327510 0.1 1016480
14:00+16sw43780 0.0 1013354
17:00+17ssw43800 0.0 1011304
20:00+17se44790 0.0 1011264
19 may, wed
wed1923:00+17ese44810 0.0 1012256
02:00+17se45833 0.0 1011334
05:00+16se44850 0.0 1011355
08:00+16sse33858 0.0 1012371
11:00+17sse338481 0.0 1012337
14:00+17sw44823 0.0 1011392
17:00+17wsw447877 0.0 1009318
20:00+18w457533 0.0 1009238
20 may, thu
thu2023:00+16wnw54691 0.0 1011359
02:00+16s22701 0.0 1010413
05:00+16ese347617 0.0 1010573
08:00+16ese667599 0.0 1011754
11:00+16se4576100 0.0 1012569
14:00+16wsw32740 0.0 1011223
17:00+16wsw88710 0.0 1010316
20:00+17wsw57640 0.0 1010522
21 may, fri
fri2123:00+17nnw44640 0.0 1011208
02:00+16wnw54620 0.0 1011382
05:00+16nw65620 0.0 1011459
08:00+16ese12620 0.0 1013478
11:00+16wsw21640 0.0 1015398
14:00+16wsw66620 0.0 1014427
17:00+16w99670 0.0 1014653
20:00+16w910690 0.0 1015638
22 may, sat
sat2223:00+16sw43620 0.0 1015578
02:00+16sw33630 0.0 1015717
05:00+15se23659 0.0 1015845
08:00+15ese4467100 0.0 1017996
11:00+16se45651 0.1 1017859
14:00+15wsw43712 0.0 1017535
17:00+16w88710 0.0 1015656
20:00+16w88731 0.0 1017649